User: anonymous   Login
Location: Brno
(49.2000°N, 16.6330°E)
Time: 21:28:35
(UTC+01:00)
Language:

Cosmos 332 Rocket - Orbit

View from above orbital plane
View from above orbital plane
View from above satellite
View from above satellite

Ground track
Ground track

The orbit data is extracted from the following two-line orbital elements,

1 04370U 70028B   15025.34636604  .00000284  00000-0  66148-4 0  8493
2 04370 074.0420 315.4522 0014335 096.2164 042.6386 14.59399879884484
Epoch (UTC): 25 January 2015 08:18:46
Eccentricity: 0.0014335
inclination: 74.0420°
perigee height: 685 km
apogee height: 705 km
right ascension of ascending node: 315.4522°
argument of perigee: 96.2164°
revolutions per day: 14.59399879
mean anomaly at epoch: 42.6386°
orbit number at epoch: 88448

The dashed part of the orbit path shows where the satellite is in the earth's shadow,  

DLR